Kuchera_Ratio
0.0 0.0 0.0 0.0 0.0 0.0 0.0 1.7 4.6 10.1 8.1 2.5 1.7 0.0 0.0 0.0 0.0 0.0 0.0 0.0 0.0 0.0 0.0 0.0 0.0 0.0 0.0 0.0 0.0 0.0 0.0 0.0 0.0 0.0 0.0 0.0 0.0 0.0
0.0 0.0 0.0 0.0 0.0 0.1 1.3 2.8 4.7 8.0 12.0 5.9 3.8 3.9 1.0 0.2 0.0 0.0 0.9 0.0 0.0 0.0 0.0 0.0 0.0 0.0 0.0 0.0 0.0 0.0 0.0 0.0 0.0 0.0 0.0 0.0 0.0 0.0
0.0 0.0 0.0 0.6 1.8 2.4 3.2 3.9 4.6 7.6 11.4 8.1 6.2 5.1 6.2 5.7 4.5 2.9 3.6 4.1 3.7 0.0 0.0 0.0 0.0 0.0 0.0 0.0 0.0 0.0 0.0 0.0 0.0 0.0 0.0 0.0 0.0 0.0
0.1 0.6 1.7 2.2 4.1 4.7 5.2 5.8 6.3 6.4 10.4 12.3 8.7 8.0 7.6 6.6 6.7 8.1 3.9 0.1 3.4 0.0 0.0 0.0 0.0 0.0 0.0 0.0 0.0 0.0 0.0 0.0 0.0 0.0 0.0 0.0 0.0 0.0
2.1 3.3 4.6 5.7 6.6 6.8 6.7 6.8 6.9 6.6 7.7 11.2 10.4 9.1 9.5 8.8 8.8 5.5 7.3 5.8 2.4 0.0 0.0 0.0 0.0 0.0 0.0 0.0 0.0 0.0 0.0 0.0 0.0 0.0 0.0 0.0 0.0 0.0
4.9 5.9 6.5 7.4 7.7 7.6 7.4 7.6 7.7 8.3 8.1 10.0 10.8 8.0 5.2 7.9 8.7 10.9 9.1 6.0 5.5 1.3 0.0 0.0 0.0 0.0 0.0 0.0 0.0 0.0 0.0 0.0 0.0 0.0 0.0 0.0 0.0 0.0
5.9 7.4 6.9 2.0 0.0 0.8 4.3 7.4 7.5 9.1 10.0 7.9 7.4 8.6 10.4 9.4 10.5 8.0 8.3 7.7 5.1 6.4 9.9 5.3 4.0 3.8 4.9 0.0 0.4 0.0 0.0 0.0 0.0 0.0 0.0 0.0 0.0 0.0
7.4 8.2 7.7 4.3 5.3 0.5 0.0 0.0 0.3 9.0 7.3 9.6 10.6 11.9 9.8 11.9 10.9 11.5 11.7 11.9 13.0 6.0 10.6 9.6 5.6 7.9 6.3 5.8 0.0 0.0 0.0 0.0 0.0 0.0 0.0 0.0 0.0 0.0
8.7 9.0 8.3 5.5 6.4 9.0 4.3 2.1 4.5 1.4 1.6 9.7 12.7 10.4 12.8 12.2 12.4 12.1 12.4 11.6 12.6 10.0 10.8 12.7 10.7 11.1 8.5 4.2 0.0 0.0 0.0 0.0 0.0 0.0 0.0 0.0 0.0 0.0
9.0 9.5 10.3 10.8 9.2 4.4 3.5 9.3 11.0 10.6 9.0 6.5 6.8 11.5 11.8 8.4 10.8 10.3 12.1 13.4 12.3 10.7 11.7 14.8 12.2 12.5 7.7 7.5 0.7 0.0 0.0 0.0 0.0 0.0 0.0 0.0 0.0 0.0
9.5 9.1 8.2 11.1 3.2 0.0 5.2 10.9 12.4 11.0 4.8 2.5 2.9 2.9 2.6 2.7 4.4 11.7 14.2 14.6 15.2 13.7 11.8 12.5 13.1 13.1 10.3 10.6 8.8 1.2 0.0 0.0 0.0 0.0 0.0 0.0 0.0 0.0
10.5 8.1 3.5 4.4 0.0 0.0 4.8 11.6 13.0 11.9 11.8 12.0 11.1 10.7 9.4 11.0 5.8 11.6 13.6 15.1 14.8 15.3 13.4 14.4 13.5 14.0 14.9 12.7 12.1 8.9 9.8 4.2 1.0 0.4 0.1 0.0 0.0 3.3
10.4 10.2 9.8 2.2 1.4 1.8 2.2 11.6 8.9 5.4 11.3 12.9 13.2 13.3 13.2 13.0 12.8 12.5 12.9 13.5 14.5 14.6 11.1 11.5 14.5 14.7 14.6 14.5 13.3 12.3 12.0 11.4 10.2 9.7 5.1 3.1 1.1 1.3
11.0 10.7 8.9 3.1 3.9 4.2 6.6 3.7 3.8 8.1 13.0 14.2 13.6 13.6 13.1 12.7 12.1 10.9 12.3 12.6 12.5 12.9 12.0 12.5 14.1 14.1 15.3 16.5 15.6 12.8 11.5 10.1 11.8 12.5 12.0 7.4 4.1 1.7
9.3 7.0 5.0 5.2 6.2 9.4 6.8 6.8 8.9 13.6 14.8 13.3 13.7 12.8 12.2 11.6 10.4 11.5 12.2 12.5 12.9 12.5 9.7 11.6 13.0 13.4 14.4 15.5 15.2 14.0 12.9 11.0 9.8 11.7 11.5 10.8 12.3 12.1
8.6 12.3 8.9 8.9 9.4 10.3 11.6 12.2 12.6 13.3 12.5 14.4 13.8 13.4 13.0 13.4 13.7 13.3 14.5 14.1 15.7 14.5 10.6 10.5 11.4 12.2 15.0 14.3 13.8 14.4 12.3 13.4 11.0 9.8 9.9 9.9 9.1 9.4
11.3 13.2 14.2 14.6 15.0 14.4 14.1 13.7 13.6 13.5 14.7 13.6 13.7 14.0 14.2 14.3 14.4 14.0 14.9 15.6 17.0 16.4 15.4 13.3 11.8 12.2 12.8 13.4 14.8 12.7 12.3 11.4 10.1 10.6 11.1 11.1 9.9 9.4
14.0 15.7 15.6 15.7 15.9 15.7 15.8 14.5 14.5 14.3 14.7 14.3 15.3 15.8 16.0 16.2 15.8 14.9 16.2 16.5 17.0 16.4 16.2 15.2 14.5 14.1 13.8 12.1 9.5 12.9 13.1 12.8 11.5 10.6 10.7 12.6 12.8 11.3
15.4 16.0 16.6 16.8 16.6 16.3 16.4 16.0 15.9 15.2 14.7 15.9 16.4 16.8 17.1 17.2 16.5 17.0 16.9 16.6 16.1 16.0 14.8 14.7 15.1 16.0 16.8 17.6 13.1 7.6 14.2 13.4 12.9 12.7 12.3 12.6 13.4 12.2
15.6 16.1 16.5 16.9 16.9 16.5 16.2 15.8 15.6 16.0 16.2 15.7 16.3 15.9 16.4 16.9 17.1 17.3 17.0 17.2 16.0 15.6 16.6 15.7 15.5 15.7 15.6 17.2 16.4 13.9 9.0 14.6 13.0 13.7 13.6 12.7 11.9 8.1
14.7 15.9 16.3 16.7 16.9 16.0 15.9 16.0 16.5 16.6 14.8 16.3 15.9 15.4 15.6 16.6 17.3 17.0 17.1 13.8 14.1 17.6 17.8 16.9 15.7 12.0 14.8 15.0 16.4 16.2 14.4 9.9 9.6 13.5 14.2 14.6 15.4 15.1
13.6 14.5 16.3 16.6 16.3 16.2 16.4 16.5 17.1 16.6 16.5 16.2 16.1 15.9 15.8 16.1 17.2 17.2 16.9 17.1 17.1 17.0 17.3 16.2 15.1 14.8 15.3 16.8 17.9 17.2 16.4 14.8 12.7 8.8 7.2 10.0 15.0 17.0
14.2 14.0 16.2 16.8 16.5 16.5 17.0 17.1 16.9 16.7 16.4 16.2 16.0 15.8 15.8 16.3 16.1 15.4 15.6 15.8 16.2 16.6 17.1 17.0 16.3 16.4 16.4 17.3 17.9 17.3 17.0 16.6 16.1 15.5 14.0 8.3 6.6 7.1